Location: *
(49.4547°N, 7.9131°E)
Time: 14:54:29
(UTC+00:00)

Cosmos 2219 - Pass Details

Date: 22 September 2019
Orbit: 834 x 860 km, 71.1° (Epoch: 18 October)

Event Time Altitude Azimuth Distance (km) Brightness Sun altitude
Rises 18:07:49 0° 189° (S) 3,421 6.4 -7.4°
Reaches altitude 10° 18:10:19 10° 184° (S) 2,489 5.6 -7.8°
Maximum altitude 18:15:50 51° 110° (ESE) 1,079 3.4 -8.7°
Drops below altitude 10° 18:21:22 10° 37° (NE) 2,501 5.4 -9.6°
Sets 18:23:53 0° 32° (NNE) 3,439 6.2 -10.0°
